STARLINK-3761, 52262

Orbit data source: Space-Track

STARLINK-3761, 52262 is a payload satellite owned by SpaceX/Seattle (US) in LEO that was launched on Thu, 21 Apr 2022 UTC via an FALCON 9 launch vehicle from the Air Force Eastern Test Range (AFETR). Payload-class satellites include a variety of spacecraft equipped with specific instruments for various scientific and technological missions. These include communications satellites like Starlink; space stations such as the ISS; scientific satellites like the Hubble; Earth observation satellites from companies like Planet Labs, Umbra, and HawkEye 360; GPS; miniature CubeSats for education and research; and military/defense satellites.

Loading next visibility...
Identifier
52262, 2022-041B
Orbit
LEO
Country
Flag of USUS
Related business
Manufacturer
SpaceX/Seattle
Mission
Operational Commercial Communications
Bus & Motor
STARLINK, Unknown motor
Mass
297 kg wet, ~275 kg dry
Launch date (UTC)
2022-04-21 (4 years ago)
Launch vehicle
FALCON 9
Launch site
Air Force Eastern Test Range (AFETR)
Object type
Payload
Rocket body
Debris
Shape & HBR
Box + 1 Pan, 10.1 m
Radar Cross Section
11.087 m², Large (>1 m²)

Expand to show TLE details & history
Last TLE update: 11 hours ago

TLE from 11 hours ago
0 STARLINK-3761
1 52262U 22041B   26237.00002315  .01165225  00000-0  33021-1 0  9999
2 52262  53.1607  71.2964 0001139  54.1688 309.9923 15.33201779  5868
Epoch: 2026-08-25T00:00Z
TLE epoch observation values (Epoch: 2026-08-25T00:00:02.000Z)
Latitude
3.2612°
Longitude
100.44741°
Altitude
466.303 km
Speed
7.635 km/s
True Right ascension
04h 54m 55s
True Declination
3° 14' 27"
Sunlit
Object was in daylight at epoch
Visualization orbit readout
Latitude
Unknown
Longitude
Unknown
Altitude
Unknown
Speed
Unknown
Apparent Right ascension
Unknown
Apparent Declination
Unknown
Sunlit
N/A
Visualization observer readout
Local Sidereal Time
02:28:41
Azimuth
Unknown
Elevation
Unknown
Doppler factor
Unknown
Orbital elements
Apogee altitude
467.303 km
Perigee altitude
465.744 km
Semi-major axis
6,844.661 km
Eccentricity
0.00011
Inclination
53.1607°
RAAN
71.2964°
Arg. of periapsis
54.1688°
True anomaly
309.9823°
Mean anomaly
309.9923°
Eccentric anomaly
309.9873°
Mean motion
3.83279 °/min
Orbital period
93.93 mins
BSTAR
0.033021
Loading maneuver chart data...
Computing Atmospheric mass density...
Loading historical data...
Loading historical data...
Loading historical data...
Loading historical data...
Loading historical data...
Loading historical data...
Loading historical data...

Documentation

Showing up to 5 results
|